Regional Weather Roundup
Issued by NWS Cleveland, OH

Home | Current Version | Previous Version | Graphics & Text | Print | Product List | Glossary On
Versions: 1 2 3 4 5 6 7 8 9 10 11 12 13 14 15 16 17 18 19 20 21 22 23 24 25 26 27 28 29 30 31 32 33 34 35 36 37 38 39 40 41 42 43 44 45 46 47 48 49 50
000
ASUS41 KCLE 211502
RWRCLE
OHIO REGIONAL WEATHER ROUNDUP
NATIONAL WEATHER SERVICE CLEVELAND, OH
1100 AM EDT TUE OCT 21 2014

NOTE: "FAIR" INDICATES FEW OR NO CLOUDS BELOW 12,000 FEET WITH NO
SIGNIFICANT WEATHER AND/OR OBSTRUCTIONS TO VISIBILITY.

OHZ001>008-015>018-024>027-034-035-043-044-211600-
   NORTHWEST OHIO

CITY           SKY/WX    TMP DP  RH WIND       PRES   REMARKS
DEFIANCE       CLOUDY    50  44  80 N12       30.04R
FINDLAY        CLOUDY    49  45  86 NW10      30.00R
TOLEDO EXPRESS CLOUDY    49  44  83 N10       30.02R
TOLEDO EXEC    CLOUDY    50  44  80 N15G21    30.02R
LIMA           CLOUDY    50  44  80 NW10G20   30.01R
$$

OHZ009>014-019>023-028>033-038-089-211600-
   NORTHEAST OHIO

CITY           SKY/WX    TMP DP  RH WIND       PRES   REMARKS
CLE-HOPKINS    LGT RAIN  49  47  93 N13       29.96R FOG
CLE-LAKEFRONT  CLOUDY    52  47  83 N23G30    29.92R
CUY CO. ARPT   LGT RAIN  52  50  93 NW16      29.92R FOG
LORAIN-ELYRIA  LGT RAIN  48  46  93 N16G23    29.96R FOG
ASHTABULA      LGT RAIN  50  46  86 N8        29.90R
AKRON-CANTON   LGT RAIN  51  47  86 NW8       29.92R FOG
WOOSTER        CLOUDY    52  46  80 N14       29.94R
MANSFIELD      CLOUDY    48  46  93 NW13      29.95R
YOUNGSTOWN     LGT RAIN  50  48  93 NW10      29.89R FOG
$$

OHZ042-051>053-060>062-070>072-077>081-211600-
  SOUTHWEST OHIO

CITY           SKY/WX    TMP DP  RH WIND       PRES   REMARKS
CINC-COVINGTON CLOUDY    53  43  68 NW10      30.03S
CINC-LUNKEN    CLOUDY    53  42  66 NW13G20   30.04R
HAMILTON       CLOUDY    54  44  69 NW10      30.04R
DAYTON         PTSUNNY   52  43  71 N14       30.03R
WRIGHT-PAT AFB NOT AVBL
DAYTON GENERAL PTSUNNY   51  43  74 NW12      30.02R
WILMINGTON     CLOUDY    51  42  71 NW14      30.00R
$$

OHZ036-037-039>041-045>050-054>059-063>069-073>076-082>088-211600-
  CENTRAL AND SOUTHEAST OHIO

CITY           SKY/WX    TMP DP  RH WIND       PRES   REMARKS
COLUMBUS       CLOUDY    50  44  80 NW13G21   29.96R
OSU AIRPORT    CLOUDY    49  45  86 NW12      29.97R
BOLTON FIELD   CLOUDY    48  45  87 NW15G22   29.99R
RICKENBACK AFB CLOUDY    49  45  85 NW13      29.97R
NEWARK         CLOUDY    50  46  86 NW12      29.95R
MARION         CLOUDY    49  45  86 NW12      29.98R
LANCASTER      CLOUDY    50  46  86 NW10      29.97R
ZANESVILLE     CLOUDY    50  47  89 NW8       29.93R
NEW PHILLY     LGT RAIN  52  48  86 N6        29.92R
$$



USA.gov is the U.S. government's official web portal to all federal, state and local government web resources and services.